User: anonymous   Login
Location: Fremont
(37.5480°N, 121.9880°W)
Time: 20:35:03
(UTC-07:00)
Language:

Cosmos 1844 Rocket - Orbit

View from above orbital plane
View from above orbital plane
View from above satellite
View from above satellite

Ground track
Ground track

The orbit data is extracted from the following two-line orbital elements,

1 17974U 87041B   15085.74576454  .00000007  00000-0  27427-4 0  9992
2 17974 071.0091 183.6033 0014791 204.3827 318.0333 14.17155915441436
Epoch (UTC): 26 March 2015 17:53:54
Eccentricity: 0.0014791
inclination: 71.0091°
perigee height: 824 km
apogee height: 845 km
right ascension of ascending node: 183.6033°
argument of perigee: 204.3827°
revolutions per day: 14.17155915
mean anomaly at epoch: 318.0333°
orbit number at epoch: 44143

The dashed part of the orbit path shows where the satellite is in the earth's shadow,  

DLR